Location: Iesi
(43.5167°N, 13.2333°E)
Time: 18:10:48
(UTC+00:00)

Cosmos 921 Rocket - Pass Details

Date: 08 August 2020
Orbit: 572 x 631 km, 75.8° (Epoch: 23 September)

Event Time Altitude Azimuth Distance (km) Brightness Sun altitude
Rises 19:50:52 0° 354° (N) 2,817 7.2 -14.9°
Reaches altitude 10° 19:53:31 10° 10° (N) 1,904 6.0 -15.2°
Maximum altitude 19:56:49 22° 62° (ENE) 1,293 4.5 -15.7°
Enters shadow 19:58:01 19° 86° (E) 1,385 4.5 -15.9°
